Location: Newark
(44.2003°N, 3.2583°E)
Time: 22:26:42
(UTC+00:00)

SR - Pass Details

Date: 30 October 2019
Orbit: 574 x 882 km, 66.7° (Epoch: 18 November)

Event Time Altitude Azimuth Distance (km) Brightness Sun altitude
Rises 20:07:06 0° 232° (SW) 3,103 ? -37.3°
Reaches altitude 10° 20:09:28 10° 239° (WSW) 2,236 ? -37.7°
Enters shadow 20:10:10 14° 243° (WSW) 1,994 ? -37.8°
Maximum altitude 20:14:21 42° 311° (NW) 1,102 - -38.6°
Drops below altitude 10° 20:19:40 10° 22° (NNE) 2,437 - -39.4°
Sets 20:22:21 0° 29° (NNE) 3,413 - -39.9°
